Weather in Rozhkao

Russia / Karachay-Cherkess Republic     43°48′56″N   40°54′45″E
temp.,
°C
wind,
m/s
gust,
m/s
humid.,
%
clouds,
%
prec.,
mm/h
press.,
hPa
HPBL,
m
24 october, sun
sun2400:00+2ssw456398 0.0 102366
03:00+2ssw4454100 0.0 102360
06:00+2ssw3451100 0.0 102255
09:00+6ssw2245100 0.0 1019212
12:00+10n123891 0.0 10171056
15:00+9ese034724 0.0 1016950
18:00+2ssw33825 0.0 101958
21:00+1ssw357935 0.0 1019120
25 october, mon
mon2500:00+1ssw1491100 0.6 1020258
03:00−1n1199100 5.4 1021153
06:00−3nne2298100 3.3 1024173
09:00−4nne2294100 5.4 1027360
12:00−3nne3292100 2.3 1027504
15:00−3nne229298 3.8 1028448
18:00−5nne129898 0.6 1031176
21:00−7sse219756 0.6 103337
26 october, tue
tue2600:00−9s32915 0.0 103433
03:00−9ssw42812 0.0 103433
06:00−9s32775 0.0 103526
09:00−1e11562 0.0 1029150
12:00+1nne21700 0.0 1027405
15:00+1ne21825 0.0 1027354
18:00−5s32945 0.0 103118
21:00−5s42760 0.0 103126
27 october, wed
wed2700:00−4s43690 0.0 103026
03:00−4ssw43650 0.0 102926
06:00−3s43650 0.0 102923
09:00+4ssw22660 0.0 102241
12:00+8nne10590 0.0 1021353
15:00+7nne11800 0.0 1021216
18:000ssw43850 0.0 102534
21:00−1ssw55670 0.0 102646
28 october, thu
thu2800:00−2ssw55640 0.0 102739
03:00−2ssw43620 0.0 102729
06:00−2ssw43610 0.0 102726
09:00+5s12550 0.0 102364
12:00+9nne11440 0.0 1022601
15:00+6ne21670 0.0 1022360
18:000s32890 0.0 102719
21:00−1ssw44790 0.0 102748